Time[GMT],air_temperature[C](-3m),wind_speed[m/s](-4m),wind_gust[m/s](-4m),visibility[m](-3m),barometric_pressure[millibars](-3m),wind_2_direction[degrees_true](-4m),wind_2_gust[m/s](-4m),wind_2_gust_1s[m/s](-4m),wind_2_min[m/s](-4m),wind_2_percent_good[m/s](-4m),wind_2_speed[m/s](-4m),wind_direction[degrees_true](-4m),wind_gust_1s[m/s](-4m),wind_min[m/s](-4m)
2007-03-26 23:30,2.2,,,2948,1025.33,204.10,4.89,,2.74,1.00,4.19,,,2.35
2007-03-27 00:00,2.3,,,2907,1025.27,210.50,4.70,,2.57,1.00,4.12,,,2.16
2007-03-27 00:30,2.4,,,2915,1025.15,218.80,5.41,,2.25,1.00,4.44,,,2.35
2007-03-27 01:00,2.5,,,2891,1024.78,217.60,5.03,,2.46,1.00,4.11,,,2.35
2007-03-27 01:30,2.4,,,2909,1024.29,217.50,4.69,,1.72,1.00,3.99,,,1.96
2007-03-27 02:00,2.6,,,2951,1023.79,220.60,5.86,,2.40,1.00,4.54,,,2.74
2007-03-27 02:30,2.7,,,2966,1023.98,245.90,8.23,,1.21,1.00,6.31,,,2.55
2007-03-27 03:00,2.7,,,2950,1024.04,238.40,7.88,,1.50,1.00,5.58,,,2.74
2007-03-27 03:30,2.4,,,2969,1023.55,224.50,8.01,,3.39,1.00,6.28,,,3.33
2007-03-27 04:00,1.6,,,2968,1022.87,192.40,6.21,,2.27,1.00,5.01,,,2.35
2007-03-27 04:30,1.7,,,2866,1022.44,185.10,5.95,,3.10,1.00,5.31,,,3.14
2007-03-27 05:00,1.6,,,2864,1022.20,179.60,6.79,,4.11,1.00,5.77,,,3.92
2007-03-27 05:30,1.6,,,2903,1021.71,175.40,7.28,,3.90,1.00,6.16,,,3.72
2007-03-27 06:00,1.6,,,2971,1021.16,164.10,7.43,,4.08,1.00,6.16,,,4.12
2007-03-27 06:30,1.5,,,2633,1020.54,163.60,7.36,,4.65,1.00,6.47,,,4.31
2007-03-27 07:00,1.7,,,2229,1019.87,166.20,8.09,,5.26,1.00,7.01,,,4.90
2007-03-27 07:30,1.9,,,2740,1018.95,172.80,11.22,,5.17,1.00,8.72,,,5.29
2007-03-27 08:00,1.9,,,2968,1018.15,176.10,11.41,,7.03,1.00,9.70,,,6.66
2007-03-27 08:30,1.6,,,2741,1017.72,174.20,10.28,,5.77,1.00,9.07,,,6.08
2007-03-27 09:00,1.4,,,2146,1017.17,174.00,11.42,,6.25,1.00,9.23,,,6.27
2007-03-27 09:30,1.5,,,1831,1016.44,168.30,10.97,,4.92,1.00,8.85,,,5.29
2007-03-27 10:00,1.6,,,1759,1016.25,161.50,10.01,,6.13,1.00,8.38,,,5.88
2007-03-27 10:30,1.8,,,1663,1016.01,158.20,10.20,,5.56,1.00,8.22,,,5.49
2007-03-27 11:00,2.0,,,2528,1015.28,162.40,9.58,,6.03,1.00,8.10,,,5.68
2007-03-27 11:30,2.2,,,2807,1014.60,160.90,9.49,,5.67,1.00,8.17,,,5.49
2007-03-27 12:00,2.3,,,2425,1014.30,159.70,9.32,,5.07,1.00,7.81,,,5.10
2007-03-27 12:30,2.5,,,2480,1014.23,152.00,9.00,,4.21,1.00,7.11,,,4.12
2007-03-27 13:00,2.5,,,2399,1013.81,150.60,8.39,,3.16,1.00,6.29,,,3.33
2007-03-27 13:30,2.6,,,2337,1013.50,147.00,7.45,,3.34,1.00,6.07,,,3.33
2007-03-27 14:00,3.0,,,2400,1013.07,146.10,6.52,,0.85,1.00,4.42,,,1.18
2007-03-27 14:30,2.5,,,1230,1012.77,115.50,6.44,,1.85,1.00,4.26,,,2.35
2007-03-27 15:00,2.3,,, 500,1012.15,108.20,5.13,,2.28,1.00,4.33,,,1.96
2007-03-27 15:30,2.1,,, 324,1011.30,118.80,6.08,,3.08,1.00,5.18,,,2.74
2007-03-27 16:00,1.9,,, 187,1011.30,112.50,4.35,,0.96,1.00,3.08,,,1.18
2007-03-27 16:30,2.0,,, 134,1011.12,94.60,3.49,,0.66,1.00,2.62,,,0.78
2007-03-27 17:00,2.0,,, 129,1011.12,84.40,3.61,,0.55,1.00,2.72,,,0.98
2007-03-27 17:30,2.0,,, 156,1010.87,82.10,3.61,,0.96,1.00,2.77,,,0.78
2007-03-27 18:00,2.1,,, 261,1010.57,82.40,3.76,,1.16,1.00,2.92,,,0.98
2007-03-27 18:30,2.0,,, 341,1010.38,69.50,3.68,,0.72,1.00,2.84,,,0.78
2007-03-27 19:00,1.9,,, 291,1010.44,55.10,2.91,,0.39,1.00,2.07,,,0.20
2007-03-27 19:30,2.0,,, 482,1010.44,44.19,3.98,,0.98,1.00,2.99,,,1.18
2007-03-27 20:00,2.0,,, 583,1010.14,54.90,4.96,,1.49,1.00,3.55,,,1.76
2007-03-27 20:30,2.0,,, 813,1010.32,49.30,4.81,,1.49,1.00,3.94,,,2.16
2007-03-27 21:00,1.9,,, 714,1010.63,32.66,4.79,,1.16,1.00,3.88,,,1.96
2007-03-27 21:30,1.6,,, 685,1010.81,39.63,5.70,,2.48,1.00,4.85,,,2.74
2007-03-27 22:00,1.5,,, 651,1010.75,41.87,6.25,,1.90,1.00,4.91,,,2.55
2007-03-27 22:30,1.5,,, 644,1011.24,24.86,5.76,,1.72,1.00,4.91,,,2.74
2007-03-27 23:00,1.5,,, 741,1011.60,20.64,5.77,,2.31,1.00,4.72,,,2.55
2007-03-27 23:30,1.4,,, 821,1011.67,25.13,5.58,,1.73,1.00,4.50,,,2.16
2007-03-28 00:00,1.4,,, 979,1012.22,17.70,7.13,,2.68,1.00,5.78,,,3.14
2007-03-28 00:30,1.4,,,1130,1011.97,36.05,7.47,,3.59,1.00,5.79,,,3.33
2007-03-28 01:00,1.4,,,1222,1012.46,21.20,6.22,,1.78,1.00,5.27,,,2.94
2007-03-28 01:30,1.5,,,1571,1012.52,27.78,5.88,,2.43,1.00,4.85,,,2.55
2007-03-28 02:00,1.5,,,2369,1013.19,352.92,7.43,,3.24,1.00,5.98,,,3.53
2007-03-28 02:30,1.6,,,2661,1012.95,351.84,6.99,,2.67,1.00,5.12,,,2.94
2007-03-28 03:00,1.6,,,2613,1012.77,357.57,6.05,,3.21,1.00,4.87,,,2.94
2007-03-28 03:30,1.5,,,2579,1012.58,351.01,5.80,,1.91,1.00,4.52,,,1.76
2007-03-28 04:00,1.5,,,2589,1012.71,337.90,5.60,,2.48,1.00,4.48,,,2.55
2007-03-28 04:30,1.6,,,2534,1012.71,332.00,5.55,,2.06,1.00,4.19,,,1.96
2007-03-28 05:00,1.6,,,2421,1013.07,327.70,6.10,,2.30,1.00,4.76,,,2.35
2007-03-28 05:30,1.6,,,2557,1013.13,321.50,6.12,,2.74,1.00,5.07,,,2.55
2007-03-28 06:00,1.8,,,2608,1013.32,321.10,6.95,,2.31,1.00,5.64,,,3.14
2007-03-28 06:30,1.8,,,2656,1013.07,320.20,6.29,,2.31,1.00,4.46,,,2.35
2007-03-28 07:00,1.8,,,2663,1012.52,316.10,5.02,,1.35,1.00,3.54,,,0.98
2007-03-28 07:30,1.9,,,2728,1012.34,316.10,4.18,,1.66,1.00,3.34,,,1.57
2007-03-28 08:00,1.9,,,2771,1012.22,295.30,4.84,,1.57,1.00,3.88,,,1.57
2007-03-28 08:30,2.0,,,2944,1012.03,292.70,5.71,,2.46,1.00,4.63,,,2.35
2007-03-28 09:00,2.2,,,2953,1012.15,282.10,6.21,,2.48,1.00,5.00,,,2.35
2007-03-28 09:30,2.4,,,2937,1011.97,275.40,6.49,,2.82,1.00,5.52,,,2.94
2007-03-28 10:00,2.5,,,2836,1011.73,273.70,6.90,,3.60,1.00,5.71,,,3.72
2007-03-28 10:30,2.8,,,2789,1011.73,277.40,7.88,,3.79,1.00,6.30,,,4.12
2007-03-28 11:00,3.1,,,2802,1011.97,278.00,9.17,,4.65,1.00,7.10,,,4.51
2007-03-28 11:30,3.2,,,2802,1012.09,281.40,7.70,,3.47,1.00,6.26,,,3.72
2007-03-28 12:00,3.3,,,2810,1012.40,284.10,8.04,,4.37,1.00,6.80,,,4.70
2007-03-28 12:30,3.9,,,2847,1012.58,298.60,10.57,,5.59,1.00,8.89,,,5.29
2007-03-28 13:00,3.9,,,2303,1012.77,305.80,10.32,,5.25,1.00,8.99,,,5.49
2007-03-28 13:30,3.9,,,2604,1012.95,301.10,9.25,,4.13,1.00,7.12,,,4.70
2007-03-28 14:00,4.1,,,2579,1012.95,301.50,8.46,,4.82,1.00,7.05,,,5.10
2007-03-28 14:30,3.7,,,2580,1013.19,309.10,8.36,,3.43,1.00,6.49,,,4.12
2007-03-28 15:00,3.2,,,2878,1012.89,316.90,8.51,,4.20,1.00,7.37,,,4.70
2007-03-28 15:30,3.3,,,2402,1012.64,311.40,9.76,,4.90,1.00,7.79,,,4.90
2007-03-28 16:00,3.3,,,2480,1012.52,302.00,10.70,,5.13,1.00,8.26,,,5.29
2007-03-28 16:30,3.2,,,2625,1012.22,309.50,12.52,,6.34,1.00,10.20,,,6.66
2007-03-28 17:00,3.1,,,2057,1012.52,308.40,11.71,,4.71,1.00,9.59,,,6.86
2007-03-28 17:30,3.1,,,2433,1012.58,309.40,12.24,,2.84,1.00,9.61,,,4.90
2007-03-28 18:00,3.0,,,2946,1012.34,309.00,12.72,,7.35,1.00,10.68,,,6.66
2007-03-28 18:30,3.0,,,2557,1012.28,302.10,12.61,,4.73,1.00,9.40,,,5.68
2007-03-28 19:00,2.9,,,2917,1012.28,311.60,11.25,,5.21,1.00,9.35,,,5.10
2007-03-28 19:30,2.9,,,2549,1012.28,312.90,11.36,,5.09,1.00,9.19,,,5.49
2007-03-28 20:00,3.0,,,2386,1012.22,315.00,13.39,,6.01,1.00,10.27,,,6.08
2007-03-28 20:30,2.9,,,2290,1012.09,313.00,12.98,,5.77,1.00,10.26,,,6.08
2007-03-28 21:00,2.9,,,2306,1012.03,311.00,12.20,,5.91,1.00,9.80,,,6.08
2007-03-28 21:30,2.8,,,2331,1012.09,307.90,11.60,,3.11,1.00,8.87,,,3.72
2007-03-28 22:00,2.8,,,2443,1011.97,313.00,11.65,,5.48,1.00,9.53,,,4.90
2007-03-28 22:30,2.8,,,2673,1011.97,305.30,10.87,,5.76,1.00,9.08,,,5.29
2007-03-28 23:00,2.9,,,2959,1011.73,308.20,11.94,,5.89,1.00,9.71,,,6.08
2007-03-28 23:30,3.0,,,2966,1011.91,305.70,13.65,,7.02,1.00,10.49,,,6.27
2007-03-29 00:00,3.0,,,2969,1012.15,304.90,13.17,,7.29,1.00,10.45,,,6.86
2007-03-29 00:30,3.1,,,2964,1012.52,311.10,14.37,,5.82,1.00,11.47,,,4.90
2007-03-29 01:00,3.1,,,2969,1012.71,322.40,15.28,,9.06,1.00,12.87,,,7.64
2007-03-29 01:30,2.8,,,2966,1013.19,324.70,15.25,,6.11,1.00,12.11,,,7.06
2007-03-29 02:00,2.5,,,2970,1013.50,341.20,14.12,,8.37,1.00,12.01,,,7.25
2007-03-29 02:30,1.8,,,2965,1013.93,353.74,13.96,,6.37,1.00,10.67,,,6.27
2007-03-29 03:00,1.5,,,2895,1014.05,348.58,14.54,,5.67,1.00,10.80,,,5.29
2007-03-29 03:30,1.4,,,2942,1014.36,337.30,16.55,,6.58,1.00,12.72,,,7.84
2007-03-29 04:00,0.5,,,2959,1014.48,336.30,17.00,,4.83,1.00,13.34,,,4.90
2007-03-29 04:30,0.6,,,2870,1014.30,340.40,18.78,,5.35,1.00,14.02,,,6.66
2007-03-29 05:00,0.2,,,2868,1014.54,343.50,17.33,,7.23,1.00,13.50,,,4.51
2007-03-29 05:30,0.1,,,2968,1014.54,343.38,20.27,,5.30,1.00,13.57,,,7.25
2007-03-29 06:00,0.1,,,2968,1014.79,341.70,14.88,,3.06,1.00,12.00,,,6.86
2007-03-29 06:30,0.0,,,2971,1014.66,350.58,18.84,,6.64,1.00,12.81,,,7.06
2007-03-29 07:00,-0.0,,,2950,1014.85,336.40,15.00,,4.76,1.00,11.65,,,7.25
2007-03-29 07:30,-0.1,,,2969,1014.85,331.60,14.96,,5.35,1.00,12.09,,,7.45
2007-03-29 08:00,-0.2,,,2971,1014.85,332.00,14.28,,4.44,1.00,12.16,,,7.45
2007-03-29 08:30,-0.3,,,2827,1014.85,337.90,15.92,,4.97,1.00,12.67,,,6.47
2007-03-29 09:00,-0.4,,,2971,1014.91,343.97,16.05,,6.39,1.00,12.49,,,6.27
2007-03-29 09:30,-0.4,,,2968,1014.97,336.90,15.47,,5.04,1.00,12.37,,,5.29
2007-03-29 10:00,-0.5,,,2940,1015.28,337.90,15.43,,7.52,1.00,12.22,,,7.25
2007-03-29 10:30,-0.6,,,2921,1015.09,336.60,17.53,,5.91,1.00,13.39,,,7.06
2007-03-29 11:00,-0.7,,,2968,1015.28,337.80,17.17,,8.25,1.00,13.57,,,7.84
2007-03-29 11:30,-0.5,,,2966,1015.15,332.00,16.55,,8.49,1.00,13.54,,,7.25
2007-03-29 12:00,-0.5,,,2969,1015.46,339.90,15.90,,7.48,1.00,13.16,,,7.45
2007-03-29 12:30,-0.5,,,2957,1015.76,331.20,15.63,,3.59,1.00,12.87,,,5.88
2007-03-29 13:00,-0.4,,,2961,1015.83,335.10,16.33,,8.30,1.00,13.93,,,7.06
2007-03-29 13:30,-0.5,,,2958,1016.44,334.20,14.99,,3.73,1.00,12.27,,,6.27
2007-03-29 14:00,-0.5,,,2941,1016.32,334.90,16.13,,9.34,1.00,13.59,,,7.64
2007-03-29 14:30,-0.3,,,2952,1016.56,335.00,14.49,,5.74,1.00,11.52,,,7.25
2007-03-29 15:00,-0.3,,,2890,1016.01,336.40,15.53,,2.70,1.00,12.75,,,7.84
2007-03-29 15:30,-0.5,,,2940,1016.01,335.60,15.50,,8.30,1.00,13.11,,,7.45
2007-03-29 16:00,-0.3,,,2928,1015.89,332.60,15.06,,8.03,1.00,12.89,,,7.64
2007-03-29 16:30,-0.2,,,2895,1015.64,333.20,15.25,,8.44,1.00,12.94,,,7.45
2007-03-29 17:00,0.0,,,2728,1015.52,331.90,15.36,,7.88,1.00,12.62,,,6.66
2007-03-29 17:30,0.1,,,2889,1015.28,331.20,15.48,,8.16,1.00,13.24,,,6.27
2007-03-29 18:00,0.3,,,2885,1015.21,332.70,15.48,,7.47,1.00,13.09,,,3.92
2007-03-29 18:30,0.6,,,2298,1015.28,332.50,16.81,,5.68,1.00,11.87,,,6.08
2007-03-29 19:00,0.8,,,2780,1015.46,330.40,14.07,,7.06,1.00,11.63,,,6.66
2007-03-29 19:30,1.1,,,2325,1015.58,329.80,14.09,,5.01,1.00,11.13,,,6.86
2007-03-29 20:00,1.5,,,2285,1015.46,332.00,13.59,,3.03,1.00,11.33,,,3.72
2007-03-29 20:30,1.7,,,2321,1015.46,332.20,12.44,,5.14,1.00,9.86,,,5.88
2007-03-29 21:00,1.8,,,2394,1015.64,334.50,11.18,,3.96,1.00,9.31,,,4.51
2007-03-29 21:30,2.0,,,2452,1015.76,327.30,11.60,,3.60,1.00,9.53,,,5.49
2007-03-29 22:00,2.0,,,1524,1015.95,329.80,10.51,,4.92,1.00,8.54,,,5.10
2007-03-29 22:30,2.1,,,1481,1016.25,333.50,9.67,,3.84,1.00,8.29,,,4.12
2007-03-29 23:00,2.2,,,2969,1016.62,329.50,9.85,,4.70,1.00,8.02,,,4.70
2007-03-29 23:30,2.3,,,2971,1017.17,332.80,9.07,,4.22,1.00,7.35,,,3.92
2007-03-30 00:00,2.5,,,2971,1017.72,330.90,8.73,,5.20,1.00,7.36,,,5.10
2007-03-30 00:30,3.0,,,2971,1017.97,341.20,11.98,,5.56,1.00,9.65,,,5.29
2007-03-30 01:00,3.0,,,2971,1018.34,340.30,11.43,,6.78,1.00,9.69,,,5.88
2007-03-30 01:30,3.0,,,2971,1018.52,340.60,12.25,,6.45,1.00,9.79,,,6.27
2007-03-30 02:00,3.0,,,2971,1018.52,338.50,11.44,,7.35,1.00,10.11,,,5.29
2007-03-30 02:30,2.9,,,2971,1018.52,339.20,11.72,,4.01,1.00,10.00,,,6.47
2007-03-30 03:00,2.9,,,2971,1018.70,341.80,10.89,,6.65,1.00,9.66,,,6.27
2007-03-30 03:30,2.8,,,2971,1018.77,341.80,10.82,,5.40,1.00,9.01,,,5.10
2007-03-30 04:00,2.7,,,2971,1018.89,340.60,11.35,,5.79,1.00,8.82,,,5.49
2007-03-30 04:30,2.7,,,2970,1019.01,340.00,10.09,,5.58,1.00,8.30,,,5.29
2007-03-30 05:00,2.6,,,2971,1019.01,341.00,9.51,,4.28,1.00,7.69,,,4.51
2007-03-30 05:30,2.5,,,2970,1019.20,335.60,8.52,,4.28,1.00,7.15,,,4.12
2007-03-30 06:00,2.5,,,2971,1019.01,339.90,9.25,,4.96,1.00,7.63,,,4.90
2007-03-30 06:30,2.5,,,2971,1018.89,342.97,9.14,,5.37,1.00,7.69,,,5.10
2007-03-30 07:00,2.5,,,2971,1018.77,340.00,9.83,,5.46,1.00,8.14,,,5.10
2007-03-30 07:30,2.4,,,2971,1018.64,338.20,8.57,,4.49,1.00,7.29,,,5.10
2007-03-30 08:00,2.3,,,2971,1018.58,335.10,8.17,,4.24,1.00,6.78,,,4.31
2007-03-30 08:30,2.3,,,2971,1018.64,334.70,7.81,,3.59,1.00,6.39,,,3.92
2007-03-30 09:00,2.2,,,2971,1018.52,328.10,7.33,,3.93,1.00,6.32,,,3.92
2007-03-30 09:30,2.2,,,2971,1018.40,325.50,7.33,,3.61,1.00,6.09,,,3.53
2007-03-30 10:00,2.1,,,2971,1018.52,327.20,7.51,,3.73,1.00,6.46,,,3.53
2007-03-30 10:30,2.1,,,2963,1018.89,327.20,7.80,,3.72,1.00,6.26,,,3.53
2007-03-30 11:00,2.1,,,2968,1018.95,325.70,6.82,,2.26,1.00,5.74,,,2.55
2007-03-30 11:30,2.0,,,2962,1018.95,316.60,6.13,,2.48,1.00,5.02,,,2.74
2007-03-30 12:00,2.0,,,2968,1018.77,315.60,5.34,,2.43,1.00,4.40,,,2.74
2007-03-30 12:30,2.0,,,2967,1019.13,304.70,5.85,,2.73,1.00,4.99,,,2.74
2007-03-30 13:00,2.0,,,2969,1019.50,303.70,5.99,,3.09,1.00,5.07,,,3.33
2007-03-30 13:30,2.1,,,2965,1019.26,307.80,6.39,,3.45,1.00,5.37,,,3.53
2007-03-30 14:00,2.1,,,2969,1019.32,302.60,6.86,,4.09,1.00,5.97,,,4.12
2007-03-30 14:30,2.2,,,2966,1019.01,307.70,8.38,,5.18,1.00,7.26,,,4.70
2007-03-30 15:00,2.3,,,2951,1018.70,306.40,6.50,,3.36,1.00,5.44,,,3.72
2007-03-30 15:30,2.3,,,2957,1018.34,300.10,7.30,,3.98,1.00,5.91,,,3.92
2007-03-30 16:00,2.4,,,2952,1017.97,302.20,6.00,,3.35,1.00,5.29,,,3.33
2007-03-30 16:30,2.5,,,2936,1017.72,291.10,6.94,,3.55,1.00,5.75,,,3.53
2007-03-30 17:00,2.5,,,2968,1016.74,288.80,9.24,,5.58,1.00,7.80,,,5.10
2007-03-30 17:30,2.6,,,2962,1016.13,281.50,7.84,,4.16,1.00,6.60,,,4.31
2007-03-30 18:00,2.8,,,2966,1016.07,278.70,8.26,,4.83,1.00,7.14,,,4.90
2007-03-30 18:30,2.9,,,2967,1015.58,275.60,7.12,,4.04,1.00,6.15,,,4.31
2007-03-30 19:00,3.0,,,2969,1015.09,275.60,8.71,,5.09,1.00,7.27,,,5.10
2007-03-30 19:30,3.0,,,2968,1014.72,267.10,7.06,,3.96,1.00,6.09,,,3.72
2007-03-30 20:00,3.0,,,2970,1013.93,260.60,7.16,,3.85,1.00,6.16,,,4.12
2007-03-30 20:30,3.2,,,2967,1013.62,258.90,8.52,,4.58,1.00,6.87,,,4.51
2007-03-30 21:00,3.5,,,2873,1013.38,275.30,9.35,,4.18,1.00,7.90,,,4.51
2007-03-30 21:30,3.5,,,2961,1013.19,271.50,8.54,,4.34,1.00,7.04,,,4.51
2007-03-30 22:00,3.6,,,2966,1013.13,273.40,9.16,,4.53,1.00,7.59,,,4.70
2007-03-30 22:30,3.5,,,2630,1012.77,271.60,8.60,,5.23,1.00,7.43,,,5.29
2007-03-30 23:00,3.5,,,2965,1012.71,272.90,8.54,,5.20,1.00,7.33,,,4.90
2007-03-30 23:30,3.4,,,2966,1012.58,275.10,7.91,,4.53,1.00,6.82,,,4.51
2007-03-31 00:00,3.6,,,2968,1012.52,276.90,8.83,,4.74,1.00,7.42,,,4.70
2007-03-31 00:30,4.0,,,2968,1012.95,290.40,9.63,,6.03,1.00,8.12,,,5.68
2007-03-31 01:00,4.0,,,2970,1013.13,297.20,9.52,,6.16,1.00,8.44,,,6.08
2007-03-31 01:30,3.8,,,2966,1013.19,304.50,9.72,,5.05,1.00,8.02,,,4.90
2007-03-31 02:00,3.9,,,2971,1013.32,311.20,9.89,,5.76,1.00,8.10,,,5.10
2007-03-31 02:30,3.6,,,2963,1013.44,313.30,9.21,,5.42,1.00,7.72,,,5.29
2007-03-31 03:00,3.8,,,2969,1013.26,318.20,8.96,,5.00,1.00,7.73,,,5.10
2007-03-31 03:30,3.8,,,2971,1013.26,318.80,9.26,,5.20,1.00,7.92,,,5.49
2007-03-31 04:00,3.7,,,2971,1013.38,310.50,10.91,,4.24,1.00,7.00,,,3.92
2007-03-31 04:30,4.1,,,2971,1013.44,319.10,11.35,,6.25,1.00,9.77,,,6.66
2007-03-31 05:00,3.7,,,2968,1013.62,328.40,10.89,,5.49,1.00,8.73,,,5.68
2007-03-31 05:30,3.5,,,2969,1013.99,336.50,12.08,,6.08,1.00,10.34,,,5.10
2007-03-31 06:00,3.1,,,2971,1014.11,344.76,11.90,,7.40,1.00,10.27,,,6.66
2007-03-31 06:30,2.7,,,2941,1014.30,345.27,11.01,,6.46,1.00,9.19,,,5.88
2007-03-31 07:00,2.3,,,2963,1014.72,357.18,11.30,,7.13,1.00,10.05,,,5.68
2007-03-31 07:30,1.9,,,2945,1015.15,357.32,13.11,,7.06,1.00,10.79,,,6.66
2007-03-31 08:00,1.6,,,2957,1015.46,357.76,13.12,,6.67,1.00,11.52,,,6.08
2007-03-31 08:30,1.3,,,2886,1015.95,354.54,12.71,,3.95,1.00,9.82,,,5.68
2007-03-31 09:00,1.0,,,2968,1016.38,355.15,12.82,,4.77,1.00,10.62,,,6.66
2007-03-31 09:30,0.9,,,2968,1016.44,352.23,12.97,,6.79,1.00,10.85,,,7.45
2007-03-31 10:00,0.6,,,2915,1017.23,352.73,13.05,,3.67,1.00,10.57,,,7.06
2007-03-31 10:30,0.6,,,2968,1017.97,355.89,12.30,,4.55,1.00,9.95,,,6.47
2007-03-31 11:00,0.6,,,2966,1018.40,352.48,12.86,,5.82,1.00,10.41,,,6.66
2007-03-31 11:30,0.6,,,2957,1018.89,356.74,10.95,,4.87,1.00,8.81,,,5.49
2007-03-31 12:00,0.4,,,2954,1019.20,345.62,12.28,,5.13,1.00,10.22,,,5.68
2007-03-31 12:30,0.2,,,2965,1019.44,350.93,12.58,,6.03,1.00,9.95,,,5.49
2007-03-31 13:00,-0.0,,,2957,1019.26,0.95,12.53,,6.53,1.00,10.69,,,6.27
2007-03-31 13:30,0.1,,,2930,1019.20,352.10,12.29,,5.98,1.00,10.04,,,5.88
2007-03-31 14:00,-0.1,,,2945,1019.75,339.30,11.97,,6.07,1.00,10.01,,,5.68
2007-03-31 14:30,-0.1,,,2962,1019.81,347.22,12.22,,5.96,1.00,10.01,,,5.88
2007-03-31 15:00,-0.1,,,2947,1019.81,336.60,12.29,,6.32,1.00,10.02,,,6.08
2007-03-31 15:30,-0.2,,,2913,1019.87,332.60,12.64,,6.74,1.00,10.39,,,7.06
2007-03-31 16:00,-0.2,,,2940,1019.62,333.80,12.84,,7.74,1.00,10.96,,,6.08
2007-03-31 16:30,-0.2,,,2709,1019.93,332.70,12.32,,5.94,1.00,10.33,,,5.68
2007-03-31 17:00,-0.3,,,2837,1019.81,334.30,13.55,,7.34,1.00,11.44,,,7.25
2007-03-31 17:30,-0.1,,,2825,1019.93,328.70,12.87,,7.86,1.00,10.93,,,7.06
2007-03-31 18:00,-0.0,,,2941,1019.99,330.00,12.90,,6.56,1.00,10.76,,,6.08
2007-03-31 18:30,0.1,,,2933,1020.05,327.50,13.72,,7.61,1.00,11.76,,,6.66
2007-03-31 19:00,0.3,,,2966,1020.11,324.00,12.22,,7.07,1.00,10.92,,,6.66
2007-03-31 19:30,0.4,,,2924,1020.11,327.60,12.69,,7.10,1.00,10.77,,,6.86
2007-03-31 20:00,0.8,,,2712,1020.18,329.50,11.36,,4.97,1.00,9.49,,,6.47
2007-03-31 20:30,0.9,,,2904,1020.30,325.20,11.64,,3.35,1.00,9.58,,,5.49
2007-03-31 21:00,1.0,,,2626,1020.36,323.10,10.59,,3.77,1.00,8.85,,,4.31
2007-03-31 21:30,1.3,,,2676,1020.48,320.50,10.90,,6.16,1.00,9.18,,,5.88
2007-03-31 22:00,1.4,,,2131,1020.85,313.20,9.84,,4.26,1.00,8.41,,,4.31
2007-03-31 22:30,1.4,,,2235,1020.67,317.10,9.22,,4.86,1.00,7.87,,,4.70
2007-03-31 23:00,1.4,,,2969,1020.67,307.60,9.26,,4.98,1.00,7.69,,,5.10
2007-03-31 23:30,1.6,,,2971,1020.85,304.60,8.84,,4.51,1.00,7.23,,,4.12
2007-04-01 00:00,1.7,,,2971,1021.34,296.30,7.22,,3.24,1.00,5.97,,,3.53
2007-04-01 00:30,1.7,,,2971,1021.65,289.10,7.63,,1.79,1.00,5.01,,,2.16
2007-04-01 01:00,1.8,,,2971,1021.83,285.70,6.27,,3.63,1.00,5.30,,,3.53
2007-04-01 01:30,2.0,,,2971,1021.89,280.50,7.16,,4.13,1.00,6.17,,,3.72
2007-04-01 02:00,2.1,,,2971,1022.02,277.50,7.92,,4.14,1.00,6.50,,,4.31
2007-04-01 02:30,2.2,,,2971,1022.02,275.80,6.75,,3.55,1.00,5.80,,,3.72
2007-04-01 03:00,2.3,,,2971,1022.02,264.50,6.15,,3.41,1.00,5.20,,,3.53
2007-04-01 03:30,2.3,,,2971,1021.83,257.20,5.97,,3.23,1.00,5.28,,,2.94
2007-04-01 04:00,2.3,,,2971,1021.77,258.80,6.98,,4.14,1.00,5.95,,,3.72
2007-04-01 04:30,2.4,,,2971,1021.83,257.90,6.95,,4.13,1.00,6.20,,,4.31
2007-04-01 05:00,2.5,,,2972,1021.95,269.10,8.53,,5.60,1.00,7.45,,,5.29
2007-04-01 05:30,2.5,,,2971,1022.14,272.40,8.55,,5.40,1.00,7.43,,,5.29
2007-04-01 06:00,2.8,,,2971,1021.95,280.60,11.22,,6.59,1.00,9.56,,,6.47
2007-04-01 06:30,2.9,,,2941,1021.77,284.00,10.61,,5.78,1.00,8.58,,,5.68
2007-04-01 07:00,2.9,,,2966,1021.71,286.60,9.92,,6.14,1.00,8.46,,,5.88
2007-04-01 07:30,2.9,,,2948,1021.46,295.40,9.82,,5.52,1.00,8.29,,,5.49
2007-04-01 08:00,2.5,,,2965,1021.65,297.20,7.66,,3.77,1.00,6.20,,,3.53
2007-04-01 08:30,2.5,,,2969,1021.65,317.90,8.55,,4.69,1.00,7.30,,,4.70
2007-04-01 09:00,2.5,,,2971,1022.38,343.42,8.13,,4.31,1.00,6.46,,,3.92
2007-04-01 09:30,2.0,,,2971,1022.81,16.03,6.58,,3.30,1.00,5.30,,,3.14
2007-04-01 10:00,1.9,,,2970,1023.24,24.84,6.35,,1.99,1.00,3.66,,,1.76
2007-04-01 10:30,1.9,,,2970,1023.37,25.82,3.87,,1.32,1.00,2.98,,,1.37
2007-04-01 11:00,1.9,,,2971,1023.73,21.62,4.32,,1.95,1.00,3.59,,,1.76
2007-04-01 11:30,2.2,,,2969,1024.04,27.34,4.28,,1.98,1.00,3.57,,,1.96
2007-04-01 12:00,1.9,,,2971,1024.53,5.80,4.52,,2.43,1.00,3.92,,,2.16
2007-04-01 12:30,1.8,,,2972,1024.96,355.48,3.51,,1.29,1.00,2.18,,,0.39
2007-04-01 13:00,1.7,,,2971,1025.02,3.71,2.94,,1.43,1.00,2.54,,,0.98
2007-04-01 13:30,1.7,,,2972,1025.21,4.93,3.23,,1.53,1.00,2.59,,,0.78
2007-04-01 14:00,1.7,,,2972,1025.39,322.50,2.33,,0.31,1.00,1.78,,,0.00
2007-04-01 14:30,1.8,,,2972,1025.64,306.90,2.80,,1.28,1.00,2.36,,,0.98
2007-04-01 15:00,1.9,,,2972,1025.64,308.70,3.10,,1.44,1.00,2.71,,,1.37
2007-04-01 15:30,2.0,,,2972,1025.58,304.80,3.44,,1.70,1.00,2.93,,,1.57
2007-04-01 16:00,1.9,,,2971,1025.51,300.60,3.82,,1.62,1.00,3.17,,,1.76
2007-04-01 16:30,1.9,,,2972,1025.21,306.50,3.54,,2.11,1.00,3.06,,,1.96
2007-04-01 17:00,2.2,,,2972,1025.27,288.70,4.16,,1.95,1.00,3.38,,,1.57
2007-04-01 17:30,2.3,,,2972,1025.15,300.20,5.23,,2.96,1.00,4.34,,,2.74
2007-04-01 18:00,2.2,,,2972,1025.02,300.90,5.60,,3.01,1.00,4.74,,,2.94
2007-04-01 18:30,2.2,,,2972,1024.90,296.90,5.18,,2.68,1.00,4.53,,,2.55
2007-04-01 19:00,2.2,,,2972,1024.84,297.30,4.69,,2.54,1.00,4.16,,,2.74
2007-04-01 19:30,2.3,,,2972,1024.78,301.50,4.83,,2.64,1.00,4.06,,,2.16
2007-04-01 20:00,2.3,,,2972,1024.72,295.10,4.73,,2.66,1.00,4.15,,,2.74
2007-04-01 20:30,2.4,,,2972,1024.65,295.30,4.19,,2.54,1.00,3.59,,,2.35
2007-04-01 21:00,2.4,,,2972,1024.47,302.10,3.38,,1.80,1.00,2.89,,,1.57
2007-04-01 21:30,2.4,,,2949,1024.65,305.30,3.56,,1.26,1.00,2.48,,,1.18
2007-04-01 22:00,2.7,,,2754,1024.90,291.20,3.65,,1.67,1.00,2.87,,,1.57
2007-04-01 22:30,2.4,,,2962,1024.96,298.90,2.53,,1.16,1.00,2.16,,,0.98
2007-04-01 23:00,2.3,,,2971,1025.02,314.40,2.07,,0.35,1.00,1.40,,,0.00
2007-04-01 23:30,2.2,,,2971,1025.02,288.20,1.57,,0.09,1.00,1.27,,,0.00
2007-04-02 00:00,2.1,,,2971,1025.15,288.50,1.78,,0.15,1.00,0.94,,,0.00
2007-04-02 00:30,1.9,,,2971,1025.08,252.10,1.27,,0.02,1.00,0.77,,,0.00
2007-04-02 01:00,1.7,,,2971,1025.08,202.00,1.60,,0.34,1.00,1.27,,,0.00
2007-04-02 01:30,1.5,,,2971,1024.78,185.20,1.46,,0.58,1.00,1.33,,,0.00
2007-04-02 02:00,1.4,,,2971,1024.78,197.80,2.24,,1.05,1.00,2.04,,,0.78
2007-04-02 02:30,1.3,,,2971,1024.59,190.10,2.67,,1.27,1.00,2.14,,,0.78
2007-04-02 03:00,1.3,,,2971,1024.53,188.20,2.31,,1.62,1.00,2.19,,,0.98
2007-04-02 03:30,1.3,,,2971,1024.41,168.00,2.55,,1.55,1.00,2.30,,,0.98
2007-04-02 04:00,1.4,,,2971,1024.16,180.90,2.92,,2.04,1.00,2.73,,,1.57
2007-04-02 04:30,1.6,,,2971,1024.29,203.00,3.80,,2.25,1.00,3.25,,,1.96
2007-04-02 05:00,1.6,,,2972,1024.04,191.60,2.93,,1.91,1.00,2.56,,,1.57
2007-04-02 05:30,1.7,,,2971,1023.67,174.60,2.82,,1.64,1.00,2.43,,,1.18
2007-04-02 06:00,1.7,,,2971,1023.55,182.30,2.57,,1.61,1.00,2.26,,,0.98
2007-04-02 06:30,1.7,,,2971,1023.49,177.70,2.69,,1.48,1.00,2.37,,,0.98
2007-04-02 07:00,1.7,,,2971,1023.24,176.30,2.86,,1.39,1.00,2.46,,,0.98
2007-04-02 07:30,1.7,,,2971,1022.75,144.70,3.20,,1.70,1.00,2.70,,,1.37
2007-04-02 08:00,1.6,,,2971,1022.63,140.10,3.78,,2.15,1.00,3.16,,,1.96
2007-04-02 08:30,1.7,,,2971,1022.44,160.70,3.56,,2.18,1.00,3.08,,,1.57
2007-04-02 09:00,1.7,,,2971,1022.02,176.80,4.69,,2.87,1.00,3.99,,,2.16
2007-04-02 09:30,1.7,,,2971,1022.14,153.90,4.19,,2.43,1.00,3.28,,,1.96
2007-04-02 10:00,1.8,,,2971,1022.08,167.90,4.91,,3.08,1.00,4.06,,,2.55
2007-04-02 10:30,1.9,,,2969,1022.44,164.10,4.79,,3.16,1.00,4.22,,,2.74
2007-04-02 11:00,1.8,,,2923,1022.14,137.60,4.74,,2.95,1.00,4.19,,,2.94
2007-04-02 11:30,1.7,,,2971,1021.83,133.90,5.17,,3.29,1.00,4.47,,,2.94
2007-04-02 12:00,1.8,,,2955,1021.77,136.70,5.58,,3.71,1.00,4.88,,,3.53
2007-04-02 12:30,1.8,,,2969,1021.89,136.00,5.15,,3.52,1.00,4.45,,,3.14
2007-04-02 13:00,1.6,,,2890,1021.95,141.40,4.75,,2.68,1.00,3.82,,,2.35
2007-04-02 13:30,1.7,,,2971,1021.83,138.00,5.98,,3.92,1.00,5.01,,,3.33
2007-04-02 14:00,1.7,,,2971,1021.71,133.50,6.00,,4.23,1.00,5.36,,,3.72
2007-04-02 14:30,1.8,,,2969,1021.65,139.30,7.93,,4.80,1.00,6.41,,,4.51
2007-04-02 15:00,1.8,,,2972,1021.10,133.20,7.35,,4.91,1.00,6.34,,,4.70
2007-04-02 15:30,1.8,,,2969,1020.79,122.70,6.04,,3.48,1.00,5.09,,,3.72
2007-04-02 16:00,1.6,,,2937,1020.67,112.70,5.85,,3.33,1.00,5.01,,,3.53
2007-04-02 16:30,1.5,,,2933,1020.24,102.80,7.34,,3.72,1.00,6.10,,,3.92
2007-04-02 17:00,1.4,,,2852,1020.30,105.10,8.13,,4.32,1.00,6.97,,,4.70
2007-04-02 17:30,1.5,,,2928,1020.05,102.30,8.14,,4.47,1.00,6.65,,,4.51